Theta_e
299 300 300 300 300 300 300 300 300 301 301 301 301 301 301 301 301 301 301 300 300 300 300 300 300 300 300 300 300 300 301 301 301 301 301 301 301 301 302 301 301 301 301 301 301 301 301 301 301 302 302 302 302 302 303 304 304 305 306 307 308 309 310 310 310 310 310 310 309 309 309 309 309 309 310 310 310 310 310 310 310 309 309 309 309 308
299 299 299 299 299 300 300 300 300 300 300 300 301 301 301 301 301 301 301 301 300 300 300 300 299 299 299 300 300 300 300 300 300 301 301 301 301 301 301 301 301 301 301 301 301 301 301 301 301 301 301 301 302 302 302 303 304 304 305 306 307 308 309 310 310 310 310 310 309 309 309 309 309 309 309 309 309 309 309 309 309 309 309 308 308 308
299 299 299 299 299 299 299 299 300 300 300 300 300 300 300 301 301 301 301 301 301 301 300 300 299 299 299 299 300 300 300 300 300 301 301 301 301 301 301 301 301 301 301 301 301 301 301 301 301 301 301 301 302 302 302 303 303 304 305 306 307 308 309 309 309 309 309 309 309 309 309 309 309 309 309 309 309 309 309 309 309 309 308 308 308 307
299 299 299 299 299 299 299 299 299 300 300 300 300 300 300 300 300 301 301 301 301 301 301 300 300 299 299 299 299 300 300 300 301 301 301 301 301 301 301 301 301 301 301 301 301 301 301 301 301 301 301 301 302 302 302 303 304 305 305 306 307 308 308 309 309 309 309 309 309 309 309 309 309 309 309 309 309 309 309 309 308 308 308 307 307 307
300 300 299 299 299 299 299 300 300 300 300 300 300 300 300 300 300 300 300 301 301 301 301 301 300 300 299 299 299 300 300 300 301 301 301 301 301 302 302 302 302 302 302 302 301 301 301 301 301 301 301 302 302 302 303 303 304 305 306 307 307 308 308 308 309 309 308 308 308 308 308 308 308 308 308 308 308 308 308 308 308 307 307 307 306 306
300 300 300 300 300 300 300 300 300 300 300 300 300 300 300 300 300 300 300 300 301 301 301 301 301 300 300 299 299 299 300 300 300 301 301 302 302 302 302 302 302 302 302 302 301 302 301 301 301 301 301 302 302 302 303 304 305 305 306 307 307 308 308 308 308 308 308 308 308 308 308 308 308 308 308 308 308 307 307 307 307 307 306 306 306 306
300 300 300 300 300 300 300 300 300 300 300 300 300 300 300 300 300 300 300 300 300 300 301 301 301 301 300 300 299 299 299 300 300 301 301 302 302 302 302 302 302 301 301 301 301 301 301 301 301 301 301 302 302 303 303 304 305 306 306 306 307 307 307 308 308 308 308 308 308 308 307 307 307 307 307 307 307 307 307 306 306 306 306 305 305 305
301 301 301 301 301 301 300 300 300 300 300 300 300 300 300 300 300 300 300 300 300 300 300 301 301 301 301 300 300 299 299 299 300 301 301 302 302 302 302 302 301 301 301 301 301 301 301 301 301 301 302 302 303 303 304 304 305 305 306 306 306 306 307 307 307 307 307 307 307 307 307 307 307 306 306 306 306 306 306 306 305 305 305 305 305 305
300 301 301 301 301 301 300 300 300 300 300 300 300 300 300 300 300 300 300 300 300 300 300 301 301 301 301 301 300 300 299 299 300 301 301 302 302 302 302 302 302 301 301 301 301 301 301 301 301 301 302 302 303 303 304 304 305 305 305 305 306 306 306 306 306 306 306 306 306 306 306 306 306 306 306 305 305 305 305 305 305 305 305 305 305 305
300 300 300 301 301 300 300 300 300 300 300 300 300 300 300 300 300 300 300 300 300 300 300 300 301 301 301 301 301 300 299 299 299 300 301 302 302 302 302 302 302 301 301 301 301 301 301 301 301 301 301 302 302 303 303 304 304 304 305 305 305 305 305 305 305 305 305 305 305 305 305 305 305 305 305 305 305 305 305 305 305 304 304 305 304 305
300 300 300 300 300 300 300 300 300 300 300 300 300 300 300 300 300 300 300 300 300 299 300 300 300 301 301 301 301 300 300 299 299 300 301 301 302 302 302 302 302 302 301 301 301 301 301 301 301 301 301 302 302 302 303 303 304 304 304 304 304 304 304 304 304 304 304 304 304 304 304 304 304 304 304 304 304 304 304 304 304 304 304 304 304 304
300 300 300 300 300 300 300 300 300 300 300 300 300 300 300 300 300 300 300 300 300 299 300 300 300 300 301 301 301 301 300 300 300 300 300 301 301 302 302 302 302 301 301 301 301 301 301 301 301 301 301 301 302 302 302 303 303 304 304 304 304 304 304 304 303 303 303 303 303 303 303 303 303 303 303 303 303 304 304 304 304 304 304 304 304 304
300 300 300 300 300 300 300 300 300 300 300 300 300 300 300 300 300 300 300 300 300 300 300 300 300 300 300 301 301 301 300 300 300 300 300 301 301 301 302 302 302 301 301 301 301 301 301 301 301 301 301 301 301 302 302 302 302 303 303 303 303 303 303 303 303 303 303 303 303 303 303 303 303 303 303 303 303 303 303 303 303 303 303 303 303 303
299 299 300 300 300 300 300 300 300 300 300 300 300 300 300 300 300 300 300 300 300 300 300 300 300 300 300 301 301 301 301 300 300 300 300 300 301 301 301 302 302 301 301 301 301 301 301 301 301 301 301 301 301 301 301 302 302 302 302 302 302 302 302 302 302 302 302 302 302 302 302 302 302 302 302 302 302 302 302 302 302 302 302 302 302 302
299 299 299 299 299 299 299 299 300 300 300 300 300 300 300 300 300 300 300 300 300 300 300 300 300 300 300 301 301 301 300 300 300 300 300 300 300 301 301 301 301 301 301 301 301 301 301 300 300 301 301 301 301 301 301 301 302 302 302 302 302 302 302 302 302 302 302 302 302 302 302 302 302 302 302 302 302 302 302 302 302 302 302 302 301 301
299 299 299 299 299 299 299 299 299 300 300 300 300 300 300 300 300 300 300 300 299 299 299 300 300 300 300 300 300 300 300 300 300 300 300 300 300 300 300 301 301 301 301 301 301 301 301 300 300 300 300 301 301 301 301 301 301 301 302 302 302 302 302 302 302 302 301 301 301 301 301 301 301 301 301 301 301 301 301 301 301 301 301 301 301 300
298 299 299 299 299 299 299 299 299 299 299 299 299 299 300 300 300 300 300 299 299 299 299 299 299 299 299 299 299 300 300 300 299 299 299 299 300 300 300 300 301 301 301 301 301 301 301 300 300 300 300 300 301 301 301 301 301 301 301 302 302 302 302 301 301 301 301 301 301 301 301 301 301 301 301 301 301 301 300 300 300 300 300 300 300 299
298 298 298 298 298 298 298 298 299 299 299 299 299 299 299 299 299 299 299 299 299 299 298 298 298 298 298 298 299 299 299 299 299 298 299 299 299 299 300 300 300 300 301 301 301 301 301 300 300 300 300 300 300 301 301 301 301 301 301 301 301 301 301 301 301 301 301 301 301 300 300 300 300 300 300 300 300 300 300 300 299 299 299 299 298 298
298 298 298 298 298 298 298 298 298 298 298 298 299 299 299 299 299 299 299 299 298 298 298 298 297 297 298 298 298 299 299 299 298 298 298 298 299 299 300 300 300 300 301 301 301 301 301 300 300 299 299 300 300 300 301 301 301 301 301 301 301 301 301 301 301 301 300 300 300 300 300 300 300 300 299 299 299 299 299 299 298 298 298 298 297 297
297 298 298 298 299 299 299 299 299 299 298 298 298 298 299 298 298 298 298 298 298 298 297 297 297 297 297 298 298 298 298 298 298 298 297 297 298 299 299 300 300 300 300 301 301 301 301 300 300 299 299 299 300 300 300 301 301 301 301 301 301 301 301 301 300 300 300 300 300 300 300 300 299 299 299 299 299 298 298 298 297 297 297 296 296 296
295 296 297 298 298 299 299 299 299 299 299 299 299 299 299 298 298 298 298 298 298 297 297 297 297 297 297 297 298 298 297 297 297 297 297 297 297 298 299 299 299 300 300 301 301 301 301 300 300 299 299 299 300 300 300 300 301 301 301 301 301 301 300 300 300 300 300 300 300 300 300 300 299 299 299 299 298 298 297 297 296 296 296 295 295 295
293 294 294 295 296 297 297 298 298 299 299 299 299 299 299 299 298 298 298 298 298 298 298 298 297 297 297 297 297 297 297 297 297 297 296 297 297 298 298 299 299 299 300 300 301 301 301 300 300 299 299 299 300 300 300 300 301 301 301 301 301 300 300 300 300 300 300 300 300 300 299 299 299 299 299 299 298 298 297 296 296 295 295 295 294 294
291 291 291 293 294 295 295 296 296 297 298 298 299 299 299 299 299 298 298 298 298 298 298 297 297 297 296 297 297 297 297 297 297 297 297 297 297 298 298 299 299 299 299 300 300 300 300 300 300 300 299 299 300 300 300 300 300 300 300 300 300 300 300 300 300 300 300 299 299 299 299 299 299 299 299 298 298 297 297 296 295 295 294 294 293 293
290 290 291 291 292 293 294 294 295 295 296 296 297 297 297 298 298 298 298 298 298 298 298 297 297 297 296 296 297 297 297 297 297 297 297 297 297 298 298 298 298 299 299 299 300 300 300 300 300 300 299 299 299 300 300 300 300 300 300 300 300 300 299 299 299 299 299 299 299 299 299 299 298 298 298 298 297 297 296 295 295 294 294 293 293 292
290 291 291 291 291 292 293 293 294 294 295 295 296 296 296 296 297 298 298 298 298 298 298 297 297 297 297 297 297 297 297 297 297 297 297 297 297 298 298 298 298 299 299 299 299 299 300 300 300 300 299 299 300 300 300 300 300 300 300 300 299 299 299 299 299 299 299 299 299 299 299 298 298 298 297 297 296 296 295 294 294 293 293 292 292 291
291 291 291 292 292 292 293 293 294 294 295 295 295 295 296 296 297 298 298 298 298 298 298 298 297 297 297 297 297 297 297 297 297 298 297 297 297 297 298 298 299 299 299 299 299 299 299 299 299 300 299 300 300 300 300 300 300 300 300 299 299 299 299 299 299 299 299 299 299 299 298 298 297 297 296 296 295 295 294 293 293 292 292 291 291 291
292 292 292 293 293 293 293 294 294 294 294 295 295 295 296 297 297 297 298 298 298 298 297 298 297 297 297 297 297 297 297 297 297 297 297 297 297 297 298 298 299 299 298 298 298 299 299 299 299 299 299 300 300 300 300 300 300 300 300 299 299 299 299 299 299 299 299 299 298 298 297 297 296 296 295 295 294 293 293 292 292 291 291 291 290 290
292 293 293 293 294 294 294 295 295 295 295 295 295 295 296 296 297 297 297 297 297 297 297 297 298 297 297 297 297 297 297 297 297 297 297 297 297 297 297 298 298 298 298 298 298 298 299 299 299 299 299 300 300 300 300 300 300 300 299 299 299 299 299 299 299 299 298 298 298 297 296 296 295 295 294 293 293 292 292 291 291 290 290 290 290 289
292 293 293 293 294 294 295 296 296 296 295 295 294 294 295 296 296 297 297 297 297 297 297 297 297 297 297 297 297 297 297 297 297 297 297 297 297 297 298 298 298 298 298 298 298 298 299 299 299 299 299 299 299 300 300 300 300 299 299 299 299 299 298 298 298 298 297 297 296 296 295 295 294 293 293 292 292 291 291 290 290 290 289 289 289 289
293 293 293 293 293 293 294 295 295 295 294 294 294 295 295 296 296 296 296 296 297 297 297 297 297 297 297 297 297 297 297 297 297 297 297 298 298 298 298 298 298 298 298 297 297 297 298 298 299 299 299 299 298 299 299 299 299 299 299 299 299 298 298 298 297 297 296 296 295 294 294 293 293 292 292 291 291 290 290 289 289 289 289 289 289 289
293 293 292 292 292 293 293 293 293 293 292 292 293 294 296 296 297 296 296 296 296 297 297 297 297 297 297 297 298 298 297 297 297 298 298 298 298 298 298 298 298 298 297 297 297 296 296 297 297 298 298 298 298 298 298 298 298 298 298 298 298 298 298 298 297 297 296 295 294 294 293 292 292 291 291 290 290 289 289 289 289 288 289 288 289 289
292 292 292 292 292 292 292 292 292 291 291 291 292 293 296 296 297 297 297 296 296 297 297 297 297 297 297 297 298 298 298 298 298 298 298 298 298 298 298 298 298 298 297 297 297 297 297 296 296 297 297 297 297 297 297 297 298 298 298 298 298 298 298 297 297 297 296 295 294 293 292 292 291 291 291 290 290 289 288 288 288 288 288 288 288 288
292 292 291 291 291 291 291 292 291 291 291 290 291 292 294 296 296 297 297 297 297 297 297 297 297 297 297 297 297 297 297 297 298 298 298 298 298 298 298 298 298 298 298 297 297 297 297 297 297 297 297 297 297 296 296 296 297 297 297 297 297 297 297 297 297 296 295 294 294 293 293 292 291 291 291 290 289 289 288 288 288 288 288 288 288 288
291 291 291 291 291 291 291 291 291 291 291 290 291 291 293 295 296 296 297 297 297 297 297 297 297 297 297 297 297 297 297 297 297 297 298 298 298 298 297 298 298 298 297 297 297 297 297 296 296 296 296 296 296 296 296 296 296 296 296 296 296 296 296 296 296 296 295 294 294 293 293 292 292 291 291 290 290 289 288 288 288 288 288 288 288 288
292 292 292 292 291 291 291 290 290 291 291 291 291 291 292 293 295 296 297 297 297 297 297 297 297 297 297 297 297 297 297 297 297 297 297 297 297 297 297 297 297 297 297 297 296 296 296 296 296 296 296 295 295 295 295 295 295 295 295 295 295 295 295 295 295 295 295 294 294 293 293 292 292 292 291 291 290 289 289 288 288 288 288 287 288 288
292 292 292 291 291 291 290 290 291 291 292 292 292 292 292 293 294 295 296 296 297 297 297 297 297 297 297 297 297 297 297 297 297 297 297 297 297 297 296 296 296 296 296 296 296 295 295 295 296 295 295 295 294 295 295 295 295 295 294 294 295 295 295 295 294 294 294 294 293 293 293 293 292 292 291 291 290 289 289 288 288 288 288 288 288 288
291 291 291 291 291 291 291 291 291 292 292 292 292 293 293 294 294 295 295 296 296 296 296 296 297 297 297 297 296 296 296 296 296 296 296 296 296 296 296 296 296 296 296 296 296 295 295 295 295 294 294 294 294 294 294 294 294 294 294 294 294 294 294 294 294 293 293 293 293 293 293 292 292 292 291 291 290 289 289 288 288 288 288 288 289 289
291 291 291 291 291 291 291 291 292 292 292 292 292 293 293 294 295 295 295 295 295 296 296 297 297 297 297 297 296 296 296 296 296 296 296 296 296 296 296 296 296 296 296 296 296 295 295 294 294 294 293 294 294 294 293 293 293 293 293 293 293 293 293 293 293 293 293 292 292 292 292 292 292 291 291 290 290 289 289 288 288 289 289 289 290 290
291 291 291 291 291 291 291 292 292 292 292 292 292 292 293 294 294 295 295 295 295 296 297 297 297 297 297 296 296 296 296 296 296 296 296 296 296 296 296 296 296 296 296 296 295 295 294 294 294 293 293 293 293 293 293 292 292 292 292 292 293 293 293 292 292 292 292 292 292 292 292 291 291 291 290 290 289 289 289 289 289 290 290 290 290 290
290 290 291 290 290 290 291 292 292 292 292 292 292 292 293 294 294 294 295 295 296 296 297 297 297 297 296 296 296 296 296 296 296 296 296 296 296 296 296 296 296 296 296 295 295 295 294 294 294 293 293 293 293 292 292 292 292 292 292 291 292 292 293 292 292 292 292 291 291 291 291 291 290 290 290 289 289 289 289 289 290 290 290 290 290 290
289 289 289 289 290 290 290 291 291 291 291 292 292 293 293 294 294 294 294 295 295 296 297 297 297 296 296 296 296 296 296 296 296 296 296 296 296 296 296 296 296 296 295 295 295 294 294 294 294 293 293 293 293 292 292 292 292 291 291 291 291 292 292 292 292 292 291 291 291 291 291 290 290 289 289 289 289 289 289 289 290 290 290 290 290 289
288 288 288 289 289 289 289 290 290 290 291 291 292 292 292 293 293 293 294 295 295 296 297 297 296 296 296 295 295 296 296 296 296 296 296 296 296 296 296 296 296 295 295 295 294 294 294 294 294 293 293 293 292 292 292 292 291 291 291 291 291 291 291 291 291 291 291 290 290 290 290 290 289 289 289 289 289 289 289 289 290 290 290 289 289 289
288 288 288 289 289 289 289 290 290 290 291 291 291 291 291 291 292 293 294 295 296 296 296 296 296 296 295 295 295 296 296 296 296 296 296 296 296 296 296 296 295 295 295 294 294 294 294 294 293 293 293 292 292 292 291 291 291 291 290 290 290 290 290 290 290 290 290 289 289 289 289 289 288 288 288 288 289 289 289 289 289 289 289 288 288 287
289 289 289 289 289 289 289 290 290 290 291 291 291 291 291 292 293 294 295 295 296 296 296 295 295 295 295 295 295 296 296 296 296 296 296 296 296 295 295 295 295 295 294 294 294 294 293 293 293 293 293 292 292 291 291 291 290 290 290 290 289 289 289 289 289 289 289 289 288 288 288 288 287 288 288 288 289 289 289 288 288 288 288 287 287 287
289 289 289 289 290 290 290 291 291 290 290 290 291 292 293 294 294 295 295 295 295 295 295 295 295 295 295 295 295 296 295 296 296 296 296 295 296 295 295 295 295 295 294 294 294 294 293 293 293 292 292 292 291 291 290 290 290 290 289 289 289 289 289 288 288 288 288 288 288 287 287 287 287 287 288 288 288 288 288 288 288 287 287 287 286 286
289 289 290 290 291 291 291 291 291 291 291 292 292 292 293 294 294 294 294 294 294 295 295 295 295 295 295 295 295 295 295 295 295 295 295 295 295 295 295 295 295 294 294 294 294 293 293 293 292 292 291 291 291 290 290 290 289 289 289 289 288 288 288 288 288 288 287 287 287 286 286 286 286 287 287 288 288 288 288 287 287 287 287 286 286 286
289 289 290 291 291 291 291 291 291 292 292 292 292 292 292 293 294 294 293 294 294 294 295 295 295 295 295 295 295 295 295 295 295 295 295 295 295 295 295 295 295 294 294 294 293 293 293 292 292 291 291 290 290 290 289 289 289 288 288 288 288 287 287 287 287 287 287 286 286 286 286 286 286 286 287 287 287 287 287 287 287 286 286 286 286 286
288 289 289 290 290 290 290 290 291 291 292 292 292 292 292 293 293 293 293 294 294 294 295 295 295 295 295 295 295 295 295 295 295 295 295 295 295 295 295 294 294 294 293 293 293 292 292 292 291 291 290 290 289 289 289 289 288 288 288 287 287 287 287 287 287 287 286 286 286 285 285 286 286 286 286 286 286 287 287 287 286 286 286 286 286 286
288 288 289 289 289 289 290 290 290 291 291 291 291 292 292 292 293 293 293 294 294 294 294 295 295 295 294 294 294 294 294 294 294 294 294 294 294 294 294 294 294 293 293 292 292 292 291 291 290 290 290 289 289 289 289 288 288 288 287 287 287 287 287 286 286 286 286 285 285 285 285 285 285 285 286 286 286 286 287 287 286 286 286 286 286 286
288 288 288 288 289 289 289 290 290 290 291 291 292 292 293 293 293 293 294 294 294 294 294 294 294 294 294 294 294 294 294 294 294 294 294 294 294 294 294 293 293 293 292 292 291 291 290 290 290 290 289 289 289 288 288 288 288 287 287 287 286 286 286 286 286 286 285 285 285 285 285 285 285 285 285 285 286 286 286 287 287 287 286 286 286 285
288 288 288 288 289 289 289 290 290 291 291 292 292 293 293 293 293 293 294 294 294 294 294 294 294 294 294 294 294 294 294 294 294 294 293 293 293 293 293 293 293 292 292 291 291 290 290 289 289 289 289 289 289 288 288 288 287 287 287 286 286 286 286 286 285 285 285 285 285 285 285 285 285 285 285 285 285 285 286 287 287 287 286 286 285 285
Wind_Speed
24 23 23 22 22 22 21 20 20 20 19 19 18 18 18 19 19 19 20 20 21 22 22 23 23 23 24 24 24 24 25 25 26 27 28 28 29 30 30 31 31 32 32 32 32 32 32 32 32 32 32 32 32 32 32 32 32 32 31 31 31 31 31 30 30 30 30 29 29 28 28 29 29 29 29 28 28 28 28 29 29 30 31 31 31 31
25 25 25 24 24 23 23 21 21 21 21 20 20 20 20 20 20 19 19 20 20 21 22 22 23 23 23 24 23 23 24 24 24 25 26 27 27 28 29 30 30 30 31 31 31 31 31 31 31 31 31 31 31 31 31 31 30 30 30 30 30 30 30 30 29 29 29 28 28 28 28 29 29 29 29 29 29 29 29 30 31 31 31 32 32 32
26 27 26 26 25 25 25 23 22 22 22 22 22 21 21 22 21 21 20 20 20 21 21 22 22 23 23 23 23 23 23 23 24 24 25 25 26 27 28 28 29 29 29 30 30 31 31 31 31 31 30 30 30 30 30 29 29 29 29 29 29 29 29 29 29 28 28 27 27 28 28 28 29 29 29 29 30 30 30 31 31 32 32 32 32 32
27 28 28 27 27 28 27 26 25 24 24 24 23 23 23 23 22 22 21 21 22 22 22 22 22 23 23 23 23 23 23 23 23 24 24 25 25 26 26 27 27 28 28 28 29 29 30 30 30 30 30 29 29 29 29 28 28 28 28 28 28 29 28 28 28 27 27 27 27 27 28 28 29 29 29 30 30 31 31 32 32 32 32 32 32 32
28 28 28 28 29 29 29 28 27 26 26 26 25 25 25 24 24 23 23 22 23 23 23 23 23 24 24 24 23 23 23 24 24 24 25 25 25 25 26 26 26 27 27 27 28 28 29 29 29 29 29 28 28 28 28 27 27 27 27 27 27 28 28 27 27 26 26 26 27 27 28 28 29 29 30 30 31 32 32 33 33 33 33 32 32 32
28 28 28 29 30 30 29 29 28 28 28 28 27 27 27 26 26 25 25 24 24 24 24 24 24 24 24 24 24 24 24 24 25 25 25 25 25 26 26 26 26 26 26 27 27 27 27 28 28 28 28 27 27 27 26 26 26 26 26 26 26 27 27 27 26 26 26 27 27 28 28 29 29 30 31 31 32 32 33 33 33 33 33 33 32 32
29 29 28 29 30 30 30 29 29 28 28 29 29 28 28 28 27 27 27 26 26 25 25 25 25 25 25 25 25 25 25 25 25 25 25 25 25 25 26 26 26 26 26 26 27 27 27 27 26 26 26 26 26 26 25 25 25 25 25 25 26 26 26 26 27 27 27 28 28 29 29 30 30 31 31 32 33 33 33 33 33 33 33 32 32 32
30 30 29 30 30 31 30 30 29 28 28 29 29 29 29 29 29 28 28 28 28 27 27 27 26 26 25 25 25 25 25 25 25 25 25 25 25 25 25 26 26 26 26 26 26 26 26 26 25 25 25 25 25 24 24 24 24 25 25 25 25 26 26 27 27 28 28 29 29 30 30 31 31 32 32 33 33 34 34 33 33 33 32 32 32 32
31 31 30 30 30 31 31 31 30 28 28 28 28 28 29 29 30 30 30 30 29 29 29 29 29 28 26 26 26 26 26 26 26 26 25 25 25 25 25 26 26 26 26 25 25 25 25 25 25 24 24 24 24 24 24 24 24 25 25 26 26 26 27 27 28 28 29 30 30 31 31 31 32 32 33 33 33 34 34 33 33 33 32 32 32 32
31 31 31 31 31 30 31 32 31 29 28 27 28 28 28 29 30 30 31 32 31 31 30 30 30 30 28 27 26 26 26 26 26 26 26 26 26 26 26 26 26 25 25 25 24 24 24 24 24 24 24 24 23 23 23 24 24 25 25 26 26 26 27 28 28 29 30 30 31 31 32 32 32 33 33 33 33 34 33 33 33 32 32 32 32 32
31 31 31 31 31 31 31 31 31 29 28 28 28 28 28 28 29 30 32 33 33 32 32 32 32 31 30 29 27 27 27 27 27 27 26 26 27 27 27 27 26 26 25 24 24 24 24 24 24 24 23 23 23 23 24 24 25 25 26 26 26 27 27 28 29 29 30 30 31 31 31 32 32 32 33 33 33 33 33 33 32 32 32 31 31 31
31 31 31 31 31 31 31 31 30 29 28 28 28 29 30 30 29 30 32 33 34 33 33 33 33 32 32 31 30 28 28 28 28 27 27 27 26 27 27 27 27 26 26 25 25 25 24 24 23 23 23 23 23 23 24 24 25 25 26 26 26 27 27 28 29 29 29 30 30 30 31 31 32 32 32 32 33 33 32 32 32 32 31 31 31 31
32 31 31 32 32 31 31 30 30 29 29 28 29 30 31 30 30 30 32 33 34 33 33 34 34 34 33 32 31 30 30 29 29 28 27 27 26 26 26 26 27 26 26 26 26 26 25 24 23 23 23 22 23 23 23 24 24 25 25 26 26 27 27 27 28 28 28 29 29 30 30 30 31 31 32 32 32 32 32 32 32 32 31 31 31 31
32 32 32 33 33 32 31 31 30 30 30 30 30 30 30 30 30 31 33 34 35 34 33 35 36 36 34 33 32 32 31 31 30 29 28 27 26 25 25 26 27 27 27 27 27 27 25 25 24 24 23 22 22 22 23 23 24 24 25 25 26 26 26 27 27 27 28 28 28 29 29 30 30 31 31 31 32 32 32 32 32 32 31 31 31 31
33 32 33 34 34 33 32 31 31 31 31 31 30 30 30 31 31 32 33 34 35 34 34 35 37 37 36 35 33 32 32 31 30 29 28 27 26 25 25 27 28 28 28 28 28 28 27 26 25 25 24 23 22 22 22 22 23 23 24 24 25 25 26 26 26 27 27 28 28 29 29 30 30 30 31 31 32 32 32 32 32 32 32 32 32 32
34 33 34 35 36 35 33 32 31 31 32 31 31 31 31 32 32 33 33 34 34 34 34 35 37 38 38 36 34 31 30 29 29 28 28 29 28 27 26 27 28 29 28 28 29 29 28 27 26 26 24 23 22 22 22 22 23 23 24 24 25 25 26 26 26 27 27 28 28 29 29 30 30 31 31 32 32 32 32 32 32 32 32 32 32 32
35 35 36 36 37 37 34 33 32 32 32 32 32 32 32 32 32 32 32 33 33 33 33 34 35 36 35 34 32 29 27 26 27 29 29 31 30 29 27 28 30 30 29 29 29 29 29 28 27 26 25 23 22 22 22 23 23 23 24 24 25 25 26 26 26 27 27 28 28 29 29 30 30 31 31 32 32 32 32 32 32 32 32 32 32 32
36 36 36 36 37 37 35 35 34 34 33 33 33 33 33 33 33 33 33 33 33 33 34 34 34 34 34 33 31 28 27 27 29 31 32 33 33 31 29 30 31 31 31 30 30 29 29 28 27 26 25 24 23 23 23 23 24 24 24 25 25 25 26 26 26 27 27 28 28 29 29 30 30 31 32 32 32 32 32 32 32 32 32 32 32 32
33 33 33 34 35 35 35 34 33 33 32 33 33 34 34 34 34 34 34 34 34 34 34 34 35 35 36 35 34 33 31 31 33 34 35 36 35 33 32 31 32 32 32 31 30 29 29 28 27 26 25 24 24 24 24 24 24 25 25 25 25 25 26 26 27 27 28 28 28 29 29 30 30 31 31 32 32 32 32 32 32 32 33 33 33 33
33 33 33 32 32 33 34 34 33 32 32 32 32 32 33 34 35 35 36 36 36 36 36 35 36 37 38 39 38 37 34 33 33 35 36 37 37 36 34 33 33 34 34 32 31 30 29 28 27 26 25 25 24 25 25 25 25 25 25 25 25 26 26 27 27 28 28 28 29 29 29 30 30 31 31 32 32 32 32 32 32 33 33 33 33 33
34 34 32 31 31 32 34 34 33 32 31 31 31 32 33 34 35 36 37 37 37 37 37 37 38 39 39 39 38 37 34 33 33 35 36 37 39 38 37 36 35 36 36 34 32 31 30 29 28 27 25 25 25 25 25 26 26 26 26 26 26 26 27 27 28 28 28 29 29 29 30 30 30 31 31 32 32 32 32 32 32 33 33 33 33 32
34 35 34 32 32 33 35 36 35 34 34 33 33 34 35 35 36 37 38 38 38 38 39 40 41 41 40 41 40 38 36 35 35 36 36 38 40 40 38 37 37 38 38 36 34 32 32 31 29 28 26 26 26 26 26 26 26 26 26 26 26 27 27 28 28 29 29 29 29 30 30 31 31 31 32 32 32 32 32 32 33 33 33 33 32 32
35 36 36 35 35 35 35 36 36 36 35 35 35 36 36 37 38 39 40 39 39 40 41 41 41 41 40 40 40 39 37 36 36 36 37 39 40 40 39 38 39 40 40 38 36 34 34 33 31 29 28 27 27 26 26 26 26 26 27 27 27 27 28 28 29 29 29 29 30 30 31 31 32 32 32 32 32 32 33 33 33 33 33 33 32 32
36 37 38 37 36 36 35 36 36 35 35 35 36 36 37 38 38 39 39 39 39 40 40 40 41 41 41 40 40 40 39 37 36 36 37 40 41 41 40 39 40 41 41 39 38 37 36 35 33 31 29 28 27 27 26 26 26 27 27 27 27 28 28 29 29 29 29 30 30 30 31 31 32 32 33 33 33 33 33 33 33 33 33 32 32 32
36 37 38 37 37 36 35 35 35 34 34 35 36 36 37 37 37 38 38 38 38 39 39 39 40 41 41 41 41 41 40 38 37 36 38 40 41 42 41 39 40 41 42 41 39 38 38 37 35 32 29 28 28 27 27 26 26 27 27 27 28 28 29 29 29 29 30 30 30 31 31 32 32 33 33 33 33 33 33 33 33 33 33 32 32 32
37 37 37 37 37 36 36 35 34 34 33 34 35 35 35 36 36 37 38 39 39 38 39 40 40 41 41 40 41 41 40 39 38 37 38 38 40 41 41 39 39 41 42 42 40 40 39 39 36 33 30 29 28 27 27 27 27 27 27 27 28 28 29 29 29 29 30 30 30 31 31 31 32 32 33 33 33 33 33 33 33 32 32 32 32 32
37 37 37 37 37 37 36 36 35 34 34 33 33 33 33 34 35 37 39 39 39 38 39 40 40 40 40 40 41 41 39 39 39 38 38 37 39 41 42 40 40 41 43 43 41 40 39 38 37 33 31 29 28 28 27 27 27 27 27 27 28 28 28 29 29 29 29 29 30 30 31 31 32 32 32 32 32 32 32 32 31 31 31 31 31 31
38 38 38 38 37 37 37 37 36 36 35 34 33 32 31 32 35 38 40 39 38 38 39 40 40 39 39 40 41 41 40 39 40 40 39 38 40 42 43 41 40 41 42 42 41 40 38 38 36 34 32 30 29 28 28 27 27 27 27 27 27 27 27 27 27 27 28 28 29 29 30 30 31 31 31 31 31 31 31 30 30 29 29 29 30 31
39 39 39 39 38 37 37 37 37 37 37 36 34 32 31 32 35 38 39 38 38 38 40 40 39 38 39 41 42 42 42 42 42 41 39 39 41 43 43 41 41 40 40 39 40 41 40 38 36 34 34 32 31 30 29 28 27 27 27 26 26 25 25 25 25 26 26 27 27 28 28 29 29 29 29 29 30 30 29 29 28 27 28 29 30 31
37 38 39 40 39 38 37 38 39 40 40 39 36 34 32 33 34 36 37 37 37 39 40 39 38 37 37 38 39 39 39 40 40 39 37 37 40 42 41 40 40 39 37 35 37 39 42 40 38 36 36 35 33 32 30 29 29 28 27 27 26 26 25 25 25 25 25 25 26 26 27 27 27 27 28 28 28 28 28 27 26 26 27 28 30 31
36 37 39 39 39 39 39 41 43 44 44 42 39 37 35 35 36 37 36 36 36 38 40 40 39 38 36 35 34 34 33 34 35 35 35 36 38 40 39 38 39 39 37 33 33 34 36 36 35 35 36 37 36 34 32 31 31 30 29 29 28 28 27 26 26 26 26 25 25 25 26 26 26 27 27 27 27 27 27 26 26 26 27 29 30 31
37 38 38 39 39 40 41 42 43 44 45 43 41 39 38 38 38 38 37 36 36 37 38 39 39 38 37 35 35 35 35 35 35 36 36 36 38 39 38 37 38 40 39 37 36 35 33 33 34 36 38 39 38 37 34 33 32 32 32 31 30 30 29 28 27 27 27 26 26 26 26 26 26 27 27 27 28 28 27 27 27 27 28 30 31 31
37 38 39 39 39 40 40 40 41 42 43 43 41 40 38 38 38 38 38 37 37 37 37 37 37 37 37 36 37 38 39 38 37 37 37 37 37 37 37 37 38 40 41 41 40 40 39 39 41 41 41 40 39 37 36 34 33 33 32 32 32 31 30 29 28 28 28 27 27 27 27 27 27 28 28 28 28 28 28 28 28 29 29 30 31 31
38 38 39 38 38 39 40 41 41 41 42 42 41 39 38 38 38 38 38 38 37 37 37 37 37 37 37 36 37 38 38 37 37 37 37 36 36 37 37 38 40 42 42 41 41 41 41 42 42 42 41 40 39 37 36 35 34 33 32 32 31 31 30 29 29 29 29 29 28 28 28 28 29 29 29 29 29 29 29 29 29 30 30 30 30 30
38 38 37 37 38 40 43 43 42 41 40 39 40 39 39 39 39 39 39 38 38 38 39 39 39 38 38 37 37 37 37 36 36 36 37 38 38 39 39 41 42 43 42 41 40 39 38 40 41 41 40 39 39 38 36 35 34 33 32 32 31 31 30 30 29 29 29 29 29 29 29 29 29 29 29 29 29 29 29 29 29 29 29 29 30 30
36 36 37 38 40 42 43 43 41 38 37 37 38 39 39 39 39 39 39 39 38 39 39 39 39 39 38 38 37 37 37 35 34 34 36 37 39 40 40 42 42 42 41 41 40 38 37 38 39 39 38 37 38 38 36 35 34 33 33 32 31 31 30 30 29 29 29 29 29 29 29 29 29 29 29 28 28 28 28 28 29 29 29 29 30 30
36 37 37 38 38 38 39 38 37 36 35 36 37 38 38 39 39 39 39 39 39 39 39 39 38 38 38 37 38 38 37 36 35 34 34 35 35 37 38 39 40 39 40 40 40 39 38 37 37 37 37 37 38 37 35 34 34 33 33 33 32 31 31 30 29 29 29 29 29 29 29 29 29 29 28 28 27 27 28 28 29 29 30 30 30 30
38 37 37 37 37 37 37 37 36 35 35 36 37 36 37 37 38 39 39 40 39 39 38 38 38 37 37 37 38 38 39 38 37 36 35 34 33 34 35 37 38 38 38 39 40 39 38 36 35 35 36 37 38 37 36 35 34 34 33 33 32 31 31 30 29 29 29 29 29 29 28 28 28 28 28 27 27 27 28 28 29 30 30 31 31 31
38 38 38 38 38 38 37 36 35 34 34 36 37 37 37 38 38 38 39 39 40 39 39 38 37 36 36 37 38 39 39 39 38 37 36 35 34 34 34 36 37 37 38 39 39 39 38 36 35 35 35 35 36 36 36 35 34 33 33 33 32 32 31 30 29 28 28 28 28 28 27 27 27 27 27 27 27 27 28 29 30 30 31 31 32 32
39 39 39 39 39 38 37 36 36 35 35 36 37 37 38 38 38 38 38 39 39 40 39 37 36 36 38 39 40 41 40 40 39 38 37 36 36 35 35 35 36 37 38 38 39 39 38 37 36 36 36 35 35 35 35 34 34 34 33 33 33 32 31 30 29 28 28 27 26 26 25 25 25 25 25 26 27 28 29 30 30 31 31 31 31 31
39 39 39 38 37 36 36 37 37 36 36 36 37 37 38 38 37 37 37 38 39 39 38 36 36 38 40 42 42 42 41 40 39 38 38 37 36 36 35 35 36 36 38 38 38 38 38 37 36 36 36 36 35 35 35 35 34 33 33 32 33 33 32 31 30 29 28 26 25 24 23 22 22 23 24 25 27 28 29 29 30 31 31 31 31 30
38 37 37 36 36 36 36 36 36 36 36 36 37 38 38 38 37 37 37 38 38 37 36 36 37 39 41 42 43 42 41 40 39 38 38 37 37 36 36 36 36 36 37 38 38 37 36 35 35 35 35 34 34 34 35 35 34 33 33 32 32 32 32 31 30 29 27 25 24 22 21 21 22 22 24 25 26 27 28 29 30 30 30 30 30 29
37 36 36 36 36 35 35 35 35 35 36 36 36 37 37 37 36 36 37 37 37 36 36 37 39 40 40 41 42 41 41 40 39 39 38 38 37 37 36 36 36 36 36 36 36 36 35 34 34 34 33 33 33 33 34 34 34 33 33 32 32 31 31 31 30 28 26 24 23 22 21 21 22 23 24 26 27 27 28 28 29 29 29 28 28 27
37 37 37 37 36 36 35 35 35 35 35 35 36 36 36 36 35 36 36 36 36 35 36 37 38 39 39 40 41 41 41 40 40 39 38 37 37 36 36 36 35 35 34 34 34 34 33 33 33 33 32 32 32 33 33 34 33 33 32 32 31 30 30 30 28 27 25 24 22 22 22 22 23 24 25 26 26 26 26 27 27 27 26 26 26 25
37 37 37 37 37 36 35 34 34 34 35 35 35 36 36 36 35 35 35 35 35 35 35 35 36 37 39 39 40 41 41 41 40 39 38 37 36 36 36 35 35 34 33 33 32 32 32 32 32 32 31 31 32 32 33 33 33 33 32 31 31 30 30 28 27 25 24 23 22 22 22 23 23 24 25 25 25 24 24 24 24 24 24 24 24 24
36 37 37 37 36 35 34 33 33 33 33 34 35 35 36 35 34 33 33 33 34 34 34 34 35 36 37 38 39 40 40 41 41 40 38 37 36 36 35 35 34 33 32 32 31 31 30 30 30 30 30 31 31 32 33 33 32 32 32 31 30 29 28 27 25 24 23 23 23 23 23 23 23 23 24 24 23 23 22 22 22 22 22 22 22 23
35 36 36 35 34 33 33 33 33 33 33 34 35 35 35 35 34 33 32 33 34 34 35 35 35 36 37 38 38 39 39 40 40 39 39 38 37 37 35 34 33 32 31 30 30 29 29 29 29 29 29 29 30 32 32 32 31 31 30 29 28 27 26 25 24 23 23 23 23 23 23 22 22 23 23 23 22 22 21 21 20 21 21 21 22 22
33 34 34 34 34 34 35 35 34 34 34 34 35 35 35 34 34 33 33 33 34 34 34 35 36 37 37 38 38 38 38 39 39 39 39 38 38 37 36 34 33 31 30 29 28 28 28 28 29 29 29 29 30 31 31 31 30 29 28 27 26 25 25 25 24 24 24 24 23 22 22 22 21 21 22 22 22 22 21 21 20 20 21 21 21 22
32 33 33 34 34 34 35 35 35 34 33 34 35 35 35 34 34 33 33 33 33 34 34 34 35 36 37 37 37 37 37 38 38 38 38 38 37 36 36 34 32 31 29 28 27 27 27 28 28 29 29 29 29 29 30 29 29 27 26 25 25 24 25 25 25 25 24 23 22 21 21 21 21 21 22 22 23 23 23 22 21 20 20 20 20 21
32 33 33 33 34 34 34 34 33 33 33 34 36 37 36 35 34 33 33 33 33 33 33 34 35 36 36 36 36 36 36 36 37 37 37 37 36 36 35 33 31 29 27 26 26 26 26 27 28 29 30 29 29 28 27 27 26 26 25 24 24 24 24 25 25 24 23 22 21 20 20 20 20 21 21 22 23 24 24 23 22 20 19 19 19 19
33 33 33 34 34 34 33 33 32 33 34 36 38 38 37 36 35 34 34 34 34 34 34 35 36 37 37 37 37 36 36 36 36 36 35 35 35 34 33 32 30 28 26 25 25 26 26 27 28 29 30 29 28 26 25 24 24 24 23 23 23 23 24 24 24 23 21 21 20 20 20 20 20 20 21 22 23 24 25 24 22 21 19 18 18 17
Wind_Direction
307 307 305 304 303 302 302 303 303 302 300 299 297 296 295 295 295 295 295 294 293 292 290 287 285 284 282 281 281 281 280 281 281 281 281 281 282 282 282 282 282 282 282 281 281 281 281 281 280 280 280 279 278 277 276 276 275 275 274 274 274 274 274 274 275 275 275 275 274 273 272 271 271 271 273 274 276 279 280 281 282 283 283 283 283 282
305 304 304 304 303 302 302 303 303 302 301 300 298 298 297 296 296 296 296 296 295 294 293 291 289 286 285 284 283 283 283 283 283 283 283 283 283 283 283 283 284 284 284 283 283 283 282 281 281 280 280 279 278 277 276 276 275 274 273 272 272 271 271 271 271 272 272 272 272 271 270 270 271 272 274 275 277 279 280 281 282 283 283 283 283 282
303 303 303 304 304 303 303 304 305 303 301 300 300 299 298 298 297 298 298 298 298 297 297 295 293 291 288 287 286 286 286 286 286 286 286 285 285 285 285 286 286 286 286 286 285 284 283 283 282 280 279 278 277 276 276 275 274 273 272 271 270 269 268 268 268 269 269 269 269 269 269 270 271 273 274 276 277 279 280 281 281 282 282 282 282 281
300 301 302 304 304 303 304 305 306 304 302 301 300 300 300 299 299 300 300 300 300 300 300 299 297 295 293 291 290 289 290 290 290 290 289 289 288 288 288 289 289 289 289 288 287 286 285 284 282 281 279 278 276 276 275 274 273 272 270 269 267 266 266 266 266 266 266 267 267 268 269 270 271 273 274 276 277 278 279 280 280 281 281 281 280 279
297 298 299 300 300 301 304 305 304 303 302 301 300 300 300 299 300 301 301 302 302 302 302 301 300 298 297 295 293 292 292 292 292 292 292 292 292 292 292 292 292 292 291 290 288 287 286 284 282 281 279 277 275 274 273 272 271 270 268 267 266 265 264 264 265 265 265 266 267 268 269 270 272 273 275 276 277 278 279 279 279 279 279 279 278 277
292 293 294 294 295 297 300 301 300 300 299 298 298 298 297 298 299 300 301 303 303 302 302 302 301 300 299 297 296 295 293 293 293 293 293 294 295 295 295 295 295 294 293 291 290 288 286 285 283 281 278 277 275 273 271 270 269 267 266 265 265 264 264 264 264 265 265 266 267 268 270 271 272 273 274 275 276 277 278 278 278 278 277 277 276 275
288 289 290 289 290 293 294 295 295 295 295 295 295 296 295 295 296 297 300 302 302 302 302 302 301 300 300 299 297 295 293 292 292 293 294 295 296 297 297 297 296 296 294 293 291 290 288 285 283 281 278 276 274 271 269 268 266 266 265 265 265 265 265 265 266 267 267 268 269 270 271 272 273 274 274 275 275 276 276 276 276 276 276 275 274 274
285 286 286 285 287 289 290 291 291 292 292 292 292 293 294 294 294 296 298 300 301 302 303 303 302 300 299 298 297 295 293 292 292 292 294 295 296 297 297 297 297 296 295 294 293 291 289 287 284 281 278 275 272 269 267 265 265 264 265 265 266 266 267 268 269 269 270 270 271 271 272 272 273 273 274 274 274 275 275 275 274 274 274 273 272 272
282 283 284 284 284 285 288 289 291 291 291 291 290 290 291 293 295 297 298 299 300 302 303 303 301 300 299 298 296 294 293 292 291 292 293 294 295 296 297 297 297 297 296 294 293 291 289 287 284 281 277 273 270 267 265 264 264 265 265 266 267 268 269 270 271 272 272 272 272 272 272 272 273 273 273 273 274 274 274 273 273 272 272 271 271 270
283 283 284 285 285 285 286 288 290 292 292 290 289 288 288 291 294 297 298 299 301 303 303 302 301 300 300 298 296 294 293 292 291 291 293 294 295 296 297 297 298 297 296 295 292 290 288 286 284 281 277 273 269 266 264 264 264 265 267 268 269 271 272 272 273 273 273 273 273 273 273 273 273 273 273 273 273 273 273 272 272 271 270 270 269 269
285 285 285 286 287 287 286 287 290 292 292 291 289 288 288 290 292 295 297 299 301 303 304 303 302 301 300 299 297 294 293 291 290 290 291 292 294 295 297 298 298 298 297 296 293 291 289 287 284 281 278 274 270 267 265 265 265 267 268 270 271 273 273 273 273 273 273 273 273 273 273 273 273 273 273 273 273 273 272 271 271 270 269 269 268 268
286 286 286 286 286 286 286 288 290 290 289 288 287 287 288 291 293 295 295 296 299 302 304 304 303 302 301 300 298 296 293 291 290 290 290 290 291 294 296 297 297 297 297 296 294 293 291 289 286 283 279 275 271 269 267 267 267 268 270 271 272 273 273 273 274 273 274 274 274 274 274 274 274 274 273 273 273 272 272 271 271 270 269 269 268 267
288 287 287 286 286 285 285 286 287 287 285 284 284 285 288 292 294 295 295 296 298 301 304 304 303 301 301 299 298 297 295 293 291 289 289 289 290 292 294 295 295 296 295 295 294 293 292 290 287 284 280 276 273 270 269 268 269 270 271 272 273 273 273 273 274 274 274 274 275 275 275 275 275 274 274 273 273 272 272 271 271 270 269 269 268 267
289 288 288 286 285 285 285 285 285 284 284 284 286 288 291 292 293 294 295 296 299 301 303 302 302 301 301 299 298 297 296 295 292 290 289 289 290 292 293 294 294 294 294 294 293 292 291 289 287 283 280 277 273 271 270 269 270 271 272 272 273 273 274 274 274 275 275 275 276 276 276 276 275 275 274 274 273 273 272 271 271 270 269 269 268 267
290 289 288 286 286 286 285 285 285 285 286 286 288 289 291 291 291 291 293 294 297 300 301 301 301 301 300 299 299 298 297 296 294 292 291 290 290 292 294 294 293 293 293 293 293 292 291 289 286 283 280 277 274 272 270 270 270 271 272 273 273 274 274 275 275 276 276 277 277 277 277 276 276 275 275 274 274 273 272 272 271 270 269 269 268 267
290 289 287 287 287 286 286 285 285 285 286 286 286 287 287 288 289 290 292 293 296 298 298 298 299 300 299 299 299 299 298 297 294 293 292 292 292 293 294 293 292 292 292 292 292 292 291 289 286 283 281 278 275 272 271 270 270 271 272 273 274 274 275 275 276 277 277 278 278 278 278 277 277 276 275 275 274 273 273 272 271 270 269 269 268 267
290 288 287 287 287 287 286 286 285 285 285 285 285 285 286 287 289 290 291 293 294 295 295 295 295 295 296 298 298 298 297 295 292 291 292 292 292 293 293 292 291 291 291 292 292 293 292 290 288 285 282 279 277 274 272 271 271 271 272 273 274 275 276 276 277 278 278 278 278 278 278 277 277 276 275 275 274 274 273 272 271 270 269 269 268 267
287 287 286 285 285 286 287 287 286 285 285 285 286 287 288 289 290 291 291 291 291 292 292 293 292 290 291 292 293 293 292 291 289 289 291 291 290 290 290 290 289 289 290 291 292 293 293 292 290 287 284 281 279 277 275 273 272 272 272 273 274 275 276 277 277 278 278 279 279 278 278 277 276 276 275 275 274 273 273 272 271 270 269 268 268 267
283 283 284 284 284 285 286 285 285 284 284 284 286 288 289 290 290 291 291 291 290 290 291 291 290 289 289 289 291 292 293 292 291 291 291 291 290 288 288 288 288 289 290 291 292 293 294 293 291 289 286 283 281 279 278 276 274 273 272 273 273 274 275 276 277 278 279 279 278 278 277 276 276 275 275 274 274 273 273 272 271 270 269 268 267 267
279 279 278 280 282 283 283 283 283 283 283 284 286 287 287 288 289 289 289 290 291 291 291 291 289 289 290 292 294 294 294 294 293 292 292 292 291 289 289 289 289 289 290 290 292 294 294 294 292 289 286 283 282 281 280 278 276 274 273 273 273 274 275 276 277 278 278 279 278 278 277 276 275 275 274 274 273 273 272 271 270 269 268 267 267 267
281 279 277 277 277 279 279 281 281 282 283 284 284 284 284 285 286 287 288 289 290 291 291 290 289 291 293 294 294 294 293 293 291 290 290 291 290 289 289 290 290 290 290 291 292 294 295 294 292 289 286 284 283 282 281 279 276 274 273 273 274 275 276 277 278 278 279 279 278 278 277 276 275 275 274 274 274 273 272 271 270 269 268 267 267 267
286 284 283 280 278 276 276 278 279 280 281 282 281 281 282 283 285 286 287 288 289 289 289 289 291 293 295 294 293 293 291 290 289 288 289 287 287 287 288 290 290 290 290 292 293 295 295 294 293 290 287 285 284 283 282 279 276 274 273 273 274 275 276 277 278 279 279 279 279 279 278 277 276 276 275 275 274 273 273 271 270 269 268 268 267 267
290 289 288 287 284 281 279 278 278 278 279 279 280 281 282 283 285 286 287 287 287 288 289 291 293 294 294 293 292 291 290 289 289 288 287 283 283 285 287 288 289 289 290 292 294 295 295 294 293 291 289 286 285 284 283 280 277 274 274 274 275 276 277 278 278 279 279 279 279 279 279 278 278 277 276 276 275 274 273 272 271 270 269 269 268 267
291 291 291 291 289 287 285 284 283 282 281 280 280 281 283 284 285 286 286 287 287 288 290 291 293 292 291 291 291 291 290 289 288 287 284 281 281 283 286 287 288 289 290 292 293 294 294 294 293 292 290 287 286 285 283 280 277 275 274 275 276 276 277 278 278 279 279 279 279 279 279 278 278 277 277 276 275 275 274 273 272 271 271 270 269 267
293 293 293 292 292 291 290 289 288 287 285 284 284 284 285 285 286 286 286 286 286 287 289 290 289 288 288 289 289 289 289 288 287 285 282 280 281 283 285 287 288 289 290 292 293 294 294 294 294 293 290 287 286 286 284 281 278 276 275 275 276 277 278 278 278 278 278 278 278 278 278 278 277 277 277 276 275 275 274 274 273 272 271 270 269 268
294 293 293 293 293 293 292 291 290 288 286 285 284 285 286 286 286 285 284 284 285 286 288 287 286 285 286 287 287 286 287 287 286 284 282 280 281 283 285 287 288 289 290 291 293 294 295 295 295 293 290 287 286 286 285 281 278 276 276 276 277 278 278 279 278 278 278 277 277 277 277 277 276 276 276 276 275 275 275 274 273 273 272 270 269 267
294 293 294 294 294 294 293 293 292 290 287 285 283 283 283 283 283 282 281 281 283 285 285 284 283 283 284 284 283 283 284 284 284 284 283 283 282 282 284 286 288 289 290 291 293 295 296 295 295 293 291 288 287 286 285 281 278 276 276 277 278 279 280 279 279 278 277 277 276 276 276 276 276 276 276 276 276 275 275 274 273 272 271 270 268 267
294 294 293 293 294 294 294 294 293 291 288 286 284 283 281 279 278 277 277 278 281 282 282 281 280 281 281 281 281 282 283 282 282 283 284 283 281 280 282 286 288 289 289 291 294 296 296 295 294 293 292 290 289 288 285 282 279 277 277 278 280 281 281 281 279 278 277 276 276 275 275 275 275 276 276 276 276 275 275 274 273 272 270 269 267 266
294 293 293 292 292 293 294 293 291 289 288 287 287 285 283 278 275 274 275 277 279 279 278 278 278 279 279 280 281 282 282 281 281 282 283 281 278 278 282 285 287 287 288 291 294 296 295 295 294 294 294 293 293 291 289 285 281 279 278 279 281 283 284 283 281 279 277 276 275 274 274 275 275 275 275 275 275 275 275 274 272 270 268 267 266 265
294 293 292 291 290 290 290 289 288 286 286 286 287 287 286 282 278 277 278 279 278 277 276 276 276 277 278 279 280 280 279 279 280 281 281 278 275 277 281 284 285 286 286 289 292 293 294 295 295 295 295 296 296 295 293 289 285 282 280 281 283 284 285 284 283 280 278 276 275 274 274 274 274 274 274 274 274 274 274 273 271 268 266 266 265 265
293 292 291 290 290 289 287 285 285 285 285 286 287 289 289 287 285 283 283 281 279 277 276 275 275 275 275 275 275 274 274 276 278 279 278 276 275 276 279 281 284 285 285 286 287 288 291 293 294 294 295 296 296 296 294 290 287 284 283 283 284 285 286 285 284 281 278 276 275 274 273 272 272 272 272 273 273 273 273 272 270 267 265 264 265 266
291 290 289 289 289 288 287 287 287 287 287 287 287 288 289 289 289 287 286 284 281 279 277 276 275 274 272 271 270 270 271 274 275 276 276 275 275 276 277 279 281 283 284 284 284 284 284 286 288 290 292 293 293 293 291 289 286 284 283 284 285 285 285 285 283 281 279 277 275 273 272 271 270 270 270 271 272 272 272 271 269 266 264 264 265 266
289 289 289 289 289 289 289 290 290 290 289 288 286 286 286 288 288 288 287 285 282 279 277 275 274 273 272 271 270 270 271 273 274 274 274 274 274 274 276 277 280 282 283 284 284 284 283 283 286 288 289 290 290 290 289 287 284 283 282 283 284 285 285 284 282 280 278 276 275 273 271 270 269 269 269 270 270 271 271 270 268 266 265 264 265 267
289 289 288 288 289 290 290 291 291 291 290 288 285 283 282 283 285 286 287 285 282 280 277 274 273 273 273 273 272 272 273 273 273 273 273 273 273 274 276 278 280 282 283 283 283 282 282 283 285 287 288 289 289 288 287 286 284 283 282 282 283 284 284 282 281 279 278 276 275 273 271 270 269 269 269 269 269 270 270 269 268 267 266 265 266 267
285 285 285 286 287 289 291 292 293 292 290 287 285 283 281 281 282 284 285 284 282 280 279 277 276 276 276 275 274 274 275 276 275 275 274 273 274 275 277 278 280 281 282 281 280 278 278 281 283 285 286 287 287 287 285 285 283 282 282 281 282 282 282 281 280 279 277 276 275 273 272 271 270 269 268 268 269 269 269 269 268 267 266 266 266 267
283 283 283 285 288 290 292 293 293 291 289 286 284 283 281 281 281 282 283 284 284 283 282 281 281 281 281 280 279 279 281 282 282 281 278 277 276 276 277 278 279 279 279 279 277 276 275 278 281 282 283 283 284 284 284 283 283 282 282 282 282 281 281 280 279 279 278 277 275 274 273 272 271 270 269 268 268 268 268 268 268 267 266 265 265 266
288 287 287 288 289 291 292 291 290 288 286 284 283 282 281 280 281 281 283 285 286 287 286 285 284 284 285 285 285 285 287 289 289 286 284 281 280 278 277 278 278 278 277 276 275 275 275 276 278 280 280 280 281 281 282 282 282 282 282 282 282 282 280 280 279 279 278 277 276 275 274 273 272 270 269 268 268 268 267 267 267 266 266 265 265 265
289 288 288 288 289 290 290 288 285 283 283 283 282 279 279 279 279 280 282 285 287 288 287 285 284 285 286 287 288 289 290 291 290 288 286 283 282 280 278 278 278 278 277 276 275 274 273 272 273 274 276 278 280 281 281 281 281 281 282 282 282 282 281 280 280 279 279 278 278 277 275 274 272 271 269 268 267 267 267 267 266 266 266 266 265 265
286 285 285 286 288 288 286 283 281 281 283 284 283 281 280 279 279 280 282 285 286 286 284 282 282 284 286 288 289 290 290 290 289 287 285 283 281 280 279 278 278 277 276 275 274 273 272 271 271 271 273 275 278 279 280 280 281 281 282 283 282 281 281 281 280 280 279 279 279 278 276 274 272 271 269 268 268 267 267 267 266 266 266 266 266 266
281 282 282 283 284 284 282 280 281 282 284 285 285 284 282 281 280 280 282 283 283 281 278 278 280 284 287 288 289 289 289 288 287 285 283 281 280 280 279 278 277 276 275 274 273 272 272 272 272 273 274 274 275 277 278 279 281 282 283 283 283 282 282 282 281 281 281 280 280 279 277 274 272 270 269 268 268 268 267 267 267 266 266 266 266 266
278 279 280 280 280 278 277 277 279 282 283 284 284 283 282 281 280 281 281 281 278 275 272 274 279 283 286 287 288 288 288 287 285 283 281 280 279 279 279 279 278 276 273 271 271 272 272 273 273 274 275 275 276 277 277 278 280 281 282 282 283 284 284 284 284 284 284 283 282 279 276 273 270 269 268 267 267 266 266 266 266 266 266 266 266 265
277 277 277 278 278 277 277 277 279 280 281 281 281 280 280 280 281 280 280 277 272 269 269 273 278 282 283 285 287 287 286 285 283 282 280 279 278 278 278 278 277 275 271 270 270 271 272 273 273 273 273 274 275 276 277 278 279 280 281 282 283 285 285 284 285 285 286 285 284 281 278 275 272 270 267 265 264 264 264 265 265 265 266 266 266 265
277 277 278 280 280 279 279 279 280 280 280 280 280 280 282 282 281 279 276 271 266 266 270 276 280 281 282 282 284 285 284 283 282 281 279 278 278 278 277 277 276 273 270 268 268 270 271 271 271 271 272 273 274 275 276 278 279 280 280 281 283 284 284 285 286 286 286 286 285 283 282 280 277 273 269 266 264 264 264 264 265 265 265 265 264 264
282 283 284 285 286 286 285 283 282 282 281 281 282 284 285 285 283 279 273 268 267 269 274 278 280 281 280 280 281 282 283 283 282 280 279 278 278 278 277 276 274 272 269 267 267 268 269 269 270 270 272 272 273 274 275 277 278 279 280 281 281 282 282 284 285 286 286 285 286 286 286 284 280 275 272 269 268 267 265 264 264 264 264 263 262 262
284 285 285 286 285 283 281 280 281 283 284 284 285 286 286 285 282 277 272 271 272 275 277 278 278 276 274 274 276 278 280 280 280 279 279 279 278 278 277 275 273 271 270 268 267 266 266 267 268 270 271 272 272 273 274 276 278 279 280 281 281 282 282 283 283 284 284 286 288 289 288 285 281 277 275 273 271 269 267 265 263 262 261 260 260 260
281 282 282 281 279 278 277 278 280 281 281 282 282 283 284 283 281 278 276 277 278 280 280 280 276 272 270 271 273 274 275 276 277 278 279 279 279 278 277 275 274 272 270 269 268 267 266 265 266 267 269 270 271 272 274 275 277 278 279 280 280 281 281 282 282 283 285 288 290 289 287 283 280 277 275 274 272 269 267 264 262 260 259 259 258 259
279 279 279 278 277 277 278 279 279 279 278 278 279 281 282 282 281 280 280 281 281 281 280 279 276 272 269 269 269 270 270 271 273 276 278 278 279 278 277 276 275 273 271 269 268 267 266 265 265 265 265 267 269 272 273 275 276 276 277 278 279 279 280 280 282 284 287 289 289 288 284 281 278 277 275 274 272 269 267 264 261 260 259 259 260 261
276 276 276 276 277 277 278 278 278 278 277 278 280 281 282 281 280 280 281 281 281 279 278 276 273 271 269 268 268 268 268 268 270 273 275 276 277 277 277 276 275 273 271 269 267 265 264 264 263 263 263 264 267 270 272 273 274 275 276 277 277 278 279 281 284 286 289 289 287 284 280 278 276 275 274 273 272 270 267 263 261 259 260 262 264 265
276 275 275 276 276 277 277 277 277 277 277 279 280 281 281 280 280 279 280 280 280 278 275 272 270 269 267 266 266 267 266 266 267 269 270 271 272 274 274 274 273 271 268 267 265 263 262 261 261 261 262 263 265 267 270 271 272 273 274 275 276 278 280 283 286 288 288 286 283 279 277 275 274 274 273 274 273 271 269 266 263 262 263 266 269 271
276 276 277 277 278 278 278 278 278 278 279 280 281 281 280 280 280 281 282 282 280 278 274 272 270 268 266 265 265 264 264 263 264 265 266 267 268 269 269 270 269 267 265 263 261 259 258 258 260 261 263 264 265 266 267 268 269 270 271 273 275 278 282 285 287 287 286 283 279 276 273 272 272 273 273 275 275 275 273 270 269 269 271 274 276 277
278 279 279 279 279 279 279 279 278 279 279 280 280 280 280 280 281 282 283 283 282 280 277 275 272 269 266 265 265 264 263 262 261 261 262 263 264 264 265 266 266 264 261 258 255 254 254 255 259 262 265 266 266 265 265 265 266 268 269 272 276 280 284 287 287 286 283 279 276 273 271 271 271 273 275 278 279 279 279 277 277 278 280 282 283 282